Location: Biltmore Gardens
(41.6070°N, 83.4666°W)
Time: 11:32:11
(UTC+00:00)

S-56A Canister/Altair - Visible Passes

Search period start: 18 April 2021 00:00
Search period end: 28 April 2021 00:00
Orbit: 632 x 2500 km, 38.9° (Epoch: 17 April)

Date Brightness Start Highest point End Pass type
(mag) Time Alt. Az. Time Alt. Az. Time Alt. Az.
18 Apr 9.9 07:11:54 10° E 07:11:54 10° E 07:11:58 10° E visible
18 Apr 7.4 09:09:20 35° WSW 09:10:47 48° SSW 09:15:03 10° ESE visible
19 Apr 7.3 08:38:29 53° S 08:38:29 53° S 08:42:37 10° ESE visible
20 Apr 10.6 01:51:15 10° SSE 01:51:23 10° SSE 01:51:23 10° SSE visible
20 Apr 8.3 08:07:43 33° SE 08:07:43 33° SE 08:10:13 10° ESE visible
20 Apr 8.5 10:05:22 10° W 10:08:50 21° SSW 10:12:15 10° SSE visible
21 Apr 10.4 01:19:32 10° SSE 01:21:22 11° SE 01:21:55 11° SE visible
21 Apr 10.5 03:17:31 10° SSW 03:19:28 15° SSW 03:19:28 15° SSW visible
21 Apr 9.5 07:37:03 15° ESE 07:37:03 15° ESE 07:37:51 10° ESE visible
21 Apr 8.2 09:34:30 19° WSW 09:36:24 25° SSW 09:40:01 10° SSE visible
22 Apr 9.8 02:44:20 10° SSW 02:50:00 26° S 02:50:00 26° S visible
22 Apr 8.0 09:03:58 29° SSW 09:03:58 29° SSW 09:07:48 10° SE visible
23 Apr 9.5 02:11:09 10° SSW 02:19:56 29° SSE 02:20:31 28° SE visible
23 Apr 10.3 04:15:22 10° WSW 04:18:04 20° SW 04:18:04 20° SW visible
23 Apr 8.6 08:33:35 23° SSE 08:33:35 23° SSE 08:35:35 10° SE visible
24 Apr 9.7 01:38:00 10° SSW 01:47:02 27° SSE 01:50:56 20° ESE visible
24 Apr 9.3 03:41:56 10° WSW 03:48:28 38° SW 03:48:28 38° SW visible
24 Apr 9.7 08:03:20 10° SE 08:03:20 10° SE 08:03:21 10° SE visible
25 Apr 10.0 01:04:54 10° SSW 01:14:03 26° SSE 01:21:01 10° E visible
25 Apr 8.7 03:08:27 10° SW 03:18:38 52° SSE 03:18:42 52° SSE visible
25 Apr 10.4 05:14:31 10° W 05:16:13 16° W 05:16:13 16° W visible
26 Apr 9.0 02:34:58 10° SW 02:45:43 50° SSE 02:48:45 36° ESE visible
26 Apr 9.5 04:41:04 10° WSW 04:46:15 34° WSW 04:46:15 34° WSW visible
27 Apr 9.2 02:01:28 10° SW 02:12:46 48° SSE 02:18:36 19° E visible
27 Apr 8.6 04:07:31 10° WSW 04:16:05 61° SW 04:16:05 61° SW visible
